Flight Track Log - Related Links

Times and Time Zones

All times are in EDT time to prevent confusion due to time zone crossing. See the LOF3416 flight status page for this flight to view local times or setup timezone preferences in your user account.

Time Position Orientation Groundspeed Altitude Reporting Facility
EDT Latitude Longitude Course Direction KTS MPH feet Rate Location/Type
Thu 11:58:06 PM 38.9500 -77.5167 288° West 184 212 1,500  Level Potomac TRACON
Thu 11:59:06 PM 38.9333 -77.5833 252° West 208 239 3,300 1,900 Climbing Potomac TRACON
Fri 12:00:06 AM 38.9333 -77.6667 270° West 238 274 5,300 2,100 Climbing Potomac TRACON
Fri 12:01:00 AM 38.8667 -77.9165 260° West  Level FlightAware Approximate
Fri 12:01:06 AM 38.9000 -77.7500 243° Southwest 240 276 7,500  Level Potomac TRACON
Fri 12:02:00 AM 38.8994 -78.0306 288° West  Level FlightAware Approximate
Fri 12:02:11 AM 38.9000 -77.8500 270° West 275 316 9,500  Level Potomac TRACON
Fri 12:03:00 AM 38.9283 -78.1466 288° West  Level FlightAware Approximate
Fri 12:03:11 AM 38.9136 -77.9367 281° West 283 326 9,900  Level Washington Center
Fri 12:04:11 AM 38.9319 -78.0519 282° West 307 353 10,700 1,250 Climbing Washington Center
Fri 12:05:11 AM 38.9525 -78.1675 283° West 327 376 12,400 1,800 Climbing Washington Center
Fri 12:06:11 AM 38.9625 -78.2800 277° West 327 376 14,300 1,700 Climbing Washington Center
Fri 12:07:11 AM 38.9664 -78.3897 273° West 327 376 15,800 1,450 Climbing Washington Center
Fri 12:08:11 AM 38.9700 -78.4992 272° West 316 364 17,200 1,400 Climbing Washington Center
Fri 12:09:11 AM 38.9736 -78.6089 272° West 311 358 18,600 1,450 Climbing Washington Center
Fri 12:10:11 AM 38.9750 -78.7156 271° West 311 358 20,100 1,350 Climbing Washington Center
Fri 12:11:11 AM 38.9806 -78.8200 274° West 306 352 21,300 1,150 Climbing Washington Center
Fri 12:12:11 AM 38.9819 -78.9269 271° West 306 352 22,400 1,050 Climbing Washington Center
Fri 12:13:11 AM 38.9892 -79.0342 275° West 306 352 23,400 1,000 Climbing Washington Center
Fri 12:14:11 AM 38.9967 -79.1414 275° West 311 358 24,400 950 Climbing Washington Center
Fri 12:15:11 AM 39.0078 -79.2542 277° West 311 358 25,300 950 Climbing Washington Center
Fri 12:16:11 AM 39.0150 -79.3614 275° West 311 358 26,300 950 Climbing Washington Center
Fri 12:17:11 AM 39.0239 -79.4714 276° West 311 358 27,200 850 Climbing Washington Center
Fri 12:18:11 AM 39.0328 -79.5814 276° West 311 358 28,000 400 Climbing Washington Center
Fri 12:19:11 AM 39.0408 -79.7128 275° West 326 375 28,000  Level Washington Center
Fri 12:20:11 AM 39.0500 -79.8122 277° West 331 381 28,000  Level Washington Center
Fri 12:21:11 AM 39.0581 -79.9383 275° West 341 392 28,000  Level Washington Center
Fri 12:23:42 AM 39.0783 -80.2844 274° West 375 432 28,000  Level Indianapolis Center
Fri 12:24:43 AM 39.0867 -80.4214 275° West 383 441 28,000  Level Indianapolis Center
Fri 12:25:44 AM 39.1031 -80.5569 279° West 384 442 28,000  Level Indianapolis Center
Fri 12:26:45 AM 39.1192 -80.6953 279° West 390 449 28,000  Level Indianapolis Center
Fri 12:27:46 AM 39.1347 -80.8336 278° West 392 451 28,000  Level Indianapolis Center
Fri 12:28:47 AM 39.1511 -80.9731 279° West 396 456 28,000  Level Indianapolis Center
Fri 12:29:47 AM 39.1669 -81.1108 278° West 392 451 28,000  Level Indianapolis Center
Fri 12:30:48 AM 39.1822 -81.2531 278° West 400 460 28,000  Level Indianapolis Center
Fri 12:31:49 AM 39.1981 -81.3925 278° West 397 457 28,000  Level Indianapolis Center
Fri 12:32:50 AM 39.2125 -81.5322 278° West 396 456 28,000  Level Indianapolis Center
Fri 12:33:51 AM 39.2278 -81.6717 278° West 396 456 28,000 -148 Level Indianapolis Center
Fri 12:34:52 AM 39.2417 -81.8117 277° West 397 457 27,700 -446 Descending Indianapolis Center
Fri 12:35:52 AM 39.2578 -81.9558 278° West 407 468 27,100 -645 Descending Indianapolis Center
Fri 12:36:53 AM 39.2747 -82.1328 277° West 414 476 26,400 -639 Descending Indianapolis Center
Fri 12:37:54 AM 39.2903 -82.2803 278° West 415 478 25,800 -590 Descending Indianapolis Center
Fri 12:38:55 AM 39.3044 -82.4281 277° West 416 479 25,200 -595 Descending Indianapolis Center
Fri 12:39:55 AM 39.3181 -82.5642 277° West 416 479 24,600 -645 Descending Indianapolis Center
Fri 12:40:56 AM 39.3325 -82.7119 277° West 412 474 23,900 -984 Descending Indianapolis Center
Fri 12:41:57 AM 39.3464 -82.8606 277° West 412 474 22,600 -1,820 Descending Indianapolis Center
Fri 12:42:58 AM 39.3597 -83.0103 277° West 414 476 20,200 -2,430 Descending Indianapolis Center
Fri 12:43:58 AM 39.3736 -83.1506 277° West 393 452 17,700 -2,500 Descending Indianapolis Center
Fri 12:44:22 AM 39.3803 -83.2203 277° West 376 433 16,700 -2,100 Descending Indianapolis Center
Fri 12:44:58 AM 39.3875 -83.2967 277° West 388 447 15,600 -1,918 Descending Indianapolis Center
Fri 12:45:59 AM 39.4072 -83.4311 281° West 358 412 13,600 -1,785 Descending Indianapolis Center
Fri 12:46:59 AM 39.4978 -83.5097 326° Northwest 404 465 12,000 -1,339 Descending Indianapolis Center
Fri 12:48:00 AM 39.5931 -83.5808 330° Northwest 373 429 10,900 -1,240 Descending Indianapolis Center
Fri 12:49:00 AM 39.6722 -83.6422 329° Northwest 321 369 9,500 -1,438 Descending Indianapolis Center
Fri 12:50:01 AM 39.7481 -83.6950 332° Northwest 300 345 8,000 -1,475 Descending Indianapolis Center
Fri 12:51:02 AM 39.8200 -83.7394 335° Northwest 285 328 6,500 -1,488 Descending Indianapolis Center
Fri 12:52:02 AM 39.8894 -83.7917 330° Northwest 281 323 5,000 -1,240 Descending Indianapolis Center
Fri 12:53:03 AM 39.9469 -83.8614 317° Northwest 285 328 4,000 -496 Descending Indianapolis Center
Fri 12:54:03 AM 40.0025 -83.9311 316° Northwest 279 321 4,000 -298 Level Indianapolis Center
Fri 12:55:04 AM 40.0419 -84.0181 301° West 257 296 3,400 -590 Descending Indianapolis Center
Fri 12:56:05 AM 40.0561 -84.1044 282° West 231 266 2,800 -397 Descending Indianapolis Center
Fri 12:57:05 AM 40.0442 -84.1792 258° West 209 241 2,600 -198 Descending Indianapolis Center
Fri 12:58:06 AM 40.0119 -84.2158 221° Southwest 133 153 2,400 -197 Descending Indianapolis Center
Fri 12:59:07 AM 39.9764 -84.2139 178° South 113 130 2,200 -397 Descending Indianapolis Center
Fri 01:00:07 AM 39.9428 -84.2147 181° South 121 139 1,600 -600 Descending Indianapolis Center

Login

Don't have an account? Register now (free) for customized features, flight alerts, and more!